Location: Napier
(39.4830°S, 176.9170°E)
Time: 02:11:55
(UTC+12:00)

Cosmos 2278 Rocket - Pass Details

Date: 24 January 2019
Orbit: 841 x 846 km, 71.0° (Epoch: 19 April)

Event Time Altitude Azimuth Distance (km) Brightness Sun altitude
Rises 23:29:28 0° 194° (SSW) 3,434 6.6 -25.5°
Reaches altitude 10° 23:32:15 10° 183° (S) 2,492 5.5 -25.7°
Maximum altitude 23:37:14 30° 123° (ESE) 1,494 3.5 -26.2°
Enters shadow 23:38:05 29° 107° (ESE) 1,531 3.4 -26.3°
